Temp
52 46 43 49 52 53 52 50 48 54 61 52 52 54 58 62 62 62 63 65 66 69 73 74 74 74 73 72 72 74 73 72 70 69 67 67 66 66 66 66 68 69 69 67
47 42 52 55 55 51 50 47 47 55 57 52 51 51 57 60 61 63 63 64 66 67 69 72 72 72 71 71 71 73 74 73 71 70 69 68 68 66 66 66 66 67 68 67
43 49 55 53 51 49 49 47 47 46 53 53 49 46 51 59 62 64 65 66 68 68 68 69 70 70 70 69 71 73 74 73 72 71 70 67 66 63 63 63 64 65 67 68
46 53 51 48 47 50 43 53 52 49 45 35 48 33 47 54 57 59 62 62 64 66 70 72 71 69 70 70 71 72 73 73 72 71 69 67 65 63 64 64 65 64 66 68
44 47 47 45 48 52 46 53 51 49 44 43 41 37 42 51 51 56 59 62 64 66 67 67 68 69 70 70 68 69 73 72 72 70 70 67 66 67 68 67 65 64 66 67
48 56 53 50 53 53 54 50 48 45 40 30 38 39 38 47 53 54 59 61 64 64 65 64 67 68 67 67 67 66 68 72 71 70 69 68 67 67 66 66 65 65 65 66
45 46 50 54 49 52 50 42 26 28 28 27 44 37 43 52 57 57 59 61 61 62 62 63 62 62 63 62 63 65 66 68 71 70 69 69 69 68 67 67 66 65 64 64
35 31 46 51 47 44 45 42 31 24 26 29 42 32 42 56 60 62 61 62 62 60 60 60 61 61 61 61 61 62 63 65 68 70 69 70 70 70 69 69 68 67 66 66
36 36 50 51 51 50 43 37 46 35 31 29 35 42 51 56 56 57 58 59 61 59 60 59 58 60 60 59 59 59 60 62 64 66 70 69 70 69 69 69 70 69 68 67
46 34 48 49 50 50 47 48 35 35 24 21 31 33 40 49 54 57 57 57 59 58 58 60 60 60 60 60 58 58 59 59 61 62 65 68 69 69 69 70 68 68 69 68
47 40 41 47 41 41 43 40 40 41 34 27 25 33 51 54 55 53 55 56 56 53 57 58 59 59 59 58 58 57 56 56 57 59 61 62 65 67 68 68 68 68 68 69
48 40 33 38 48 50 48 44 42 32 28 32 31 34 54 53 55 55 55 58 54 55 58 58 58 58 58 58 58 58 57 55 55 56 58 61 62 62 65 67 68 68 67 67
47 35 24 29 38 42 41 46 47 44 40 31 26 35 53 54 54 55 54 54 56 56 57 57 57 56 56 57 57 57 56 55 54 54 55 56 59 60 64 66 66 67 66 66
49 36 32 30 33 39 35 40 43 41 34 35 35 39 48 51 53 56 56 54 53 54 56 55 54 54 55 56 56 55 56 55 55 53 53 53 57 59 62 64 65 65 65 64
46 31 37 40 41 40 37 36 39 37 40 34 40 41 47 49 52 53 55 53 54 54 53 52 52 51 52 52 54 56 56 53 52 50 50 51 55 56 58 58 59 60 60 61
45 32 31 28 40 40 31 39 40 40 40 41 41 41 54 51 53 54 54 53 51 50 50 50 50 49 48 48 49 52 52 52 49 47 47 48 50 52 53 55 56 56 56 56
41 32 31 24 34 30 25 35 39 40 43 38 34 41 50 50 52 52 51 49 48 47 47 47 46 45 44 45 47 43 45 49 47 45 45 45 46 47 48 51 51 50 52 53
38 32 32 20 26 22 35 46 45 42 44 47 47 48 50 51 51 47 46 45 45 45 44 43 42 41 42 43 41 41 42 45 44 42 42 42 42 44 45 45 45 46 46 48
45 37 30 25 20 29 37 40 39 38 39 48 47 50 50 48 47 42 45 45 43 42 42 40 40 39 40 39 37 36 39 40 38 36 36 36 36 36 38 39 40 41 41 41
37 42 34 29 22 16 30 39 46 45 31 45 46 45 45 45 38 39 42 42 41 40 39 37 36 37 36 35 34 33 35 34 32 33 33 34 34 34 35 37 37 34 35 35
31 32 29 29 20 26 37 40 44 27 32 41 43 42 41 39 38 39 41 39 39 37 36 35 33 32 33 32 30 30 31 30 32 33 33 34 34 35 35 36 34 34 34 34
31 29 28 30 26 23 40 38 36 38 37 38 38 37 36 36 36 37 36 35 35 33 32 31 29 29 30 30 30 29 29 31 32 33 34 34 34 34 35 34 34 34 34 34
29 35 30 32 30 37 36 34 34 38 35 34 35 33 33 32 33 33 32 31 31 30 30 29 27 27 29 28 29 28 29 30 29 30 33 34 34 34 34 33 34 34 34 34
31 37 30 33 35 36 35 33 33 34 32 32 32 31 30 29 30 29 29 29 28 29 28 27 26 26 25 26 27 28 28 27 26 28 31 34 34 34 34 33 33 34 34 34
32 36 29 29 31 31 31 32 31 30 29 29 29 29 28 27 28 28 27 27 27 27 26 25 23 23 22 23 23 25 26 24 24 26 29 33 34 33 33 33 34 33 33 34
33 32 31 28 34 34 31 31 31 28 28 28 27 26 27 27 26 25 24 25 25 23 23 22 20 19 19 19 19 20 22 22 21 23 27 30 32 33 32 32 31 35 36 37
MSLP
1017.19 1017.18 1016.24 1016.51 1016.65 1016.54 1016.29 1016.13 1015.61 1014.88 1014.48 1014.64 1014.70 1014.24 1013.70 1013.22 1012.84 1012.38 1012.23 1011.90 1011.66 1011.37 1011.00 1010.87 1010.55 1010.58 1011.05 1011.59 1011.99 1012.47 1013.43 1014.29 1015.26 1016.01 1016.31 1016.21 1016.00 1016.29 1016.81 1017.01 1017.31 1017.62 1017.97 1018.65
1017.02 1016.00 1016.40 1016.43 1016.60 1016.62 1016.39 1016.20 1015.87 1015.22 1014.70 1015.06 1015.17 1014.20 1013.66 1013.10 1012.36 1012.08 1011.78 1011.53 1011.16 1010.82 1010.40 1010.17 1010.07 1010.01 1010.18 1010.56 1011.07 1011.65 1011.98 1012.86 1014.17 1014.88 1015.19 1015.72 1015.91 1015.92 1016.03 1016.50 1016.72 1017.06 1017.32 1017.72
1016.28 1015.65 1016.09 1015.94 1016.08 1016.17 1016.11 1016.07 1016.34 1016.12 1015.74 1015.58 1015.58 1013.67 1012.67 1011.34 1011.10 1011.01 1010.92 1010.63 1010.45 1010.15 1010.00 1009.92 1009.74 1009.70 1009.68 1009.88 1010.15 1010.57 1011.25 1011.82 1012.31 1013.47 1014.59 1015.28 1015.83 1016.17 1016.19 1015.97 1016.09 1016.11 1016.42 1016.69
1016.37 1015.77 1015.77 1015.88 1015.65 1015.99 1015.83 1016.32 1016.76 1016.82 1016.98 1016.85 1016.46 1014.34 1012.46 1011.74 1010.72 1010.22 1009.79 1009.59 1009.36 1008.95 1009.16 1009.09 1009.08 1009.15 1009.15 1009.14 1009.41 1009.76 1010.22 1010.78 1011.65 1012.37 1013.00 1013.58 1013.70 1014.07 1014.00 1014.53 1015.05 1015.31 1015.52 1015.60
1014.82 1015.03 1015.17 1015.21 1015.36 1015.92 1016.02 1016.38 1016.91 1017.21 1017.53 1017.70 1017.32 1016.94 1012.67 1011.32 1010.52 1009.65 1008.81 1008.71 1008.17 1008.04 1008.32 1008.37 1008.46 1008.43 1008.30 1008.30 1008.57 1008.90 1009.22 1009.80 1010.55 1011.36 1011.83 1012.35 1012.73 1012.74 1013.03 1013.51 1013.84 1014.21 1014.39 1014.49
1014.98 1014.69 1014.83 1014.66 1015.20 1015.78 1016.22 1016.78 1017.48 1018.10 1018.66 1018.18 1017.19 1016.82 1012.34 1011.23 1009.61 1009.07 1008.55 1008.50 1008.21 1008.00 1007.79 1008.22 1008.22 1008.33 1008.51 1008.37 1008.38 1008.57 1008.75 1008.95 1009.46 1010.13 1010.76 1011.01 1011.33 1011.88 1011.96 1012.06 1012.43 1012.71 1013.06 1013.29
1015.04 1014.69 1014.69 1014.53 1014.94 1015.47 1016.29 1016.99 1017.99 1019.12 1019.37 1017.45 1016.15 1016.13 1011.48 1010.09 1009.57 1008.98 1008.67 1008.37 1008.09 1008.04 1008.15 1008.37 1008.77 1009.17 1009.23 1009.14 1008.87 1008.66 1008.47 1008.50 1008.59 1008.88 1009.35 1009.87 1010.24 1010.48 1010.89 1011.14 1011.14 1011.68 1012.02 1012.22
1014.41 1014.37 1013.91 1014.14 1014.28 1014.91 1015.83 1016.70 1017.14 1017.74 1018.06 1017.10 1015.87 1014.29 1010.67 1009.47 1008.81 1008.35 1007.89 1008.02 1008.22 1008.42 1008.46 1008.68 1009.29 1009.59 1009.76 1009.66 1009.38 1009.00 1008.69 1008.28 1008.10 1008.22 1008.45 1008.78 1009.21 1009.47 1009.57 1010.09 1010.11 1010.40 1010.57 1010.74
1013.64 1013.38 1012.62 1013.34 1014.32 1014.87 1015.43 1016.06 1016.27 1017.41 1017.87 1017.66 1015.56 1012.73 1010.87 1009.19 1008.62 1008.10 1008.06 1008.05 1008.36 1008.87 1008.93 1009.09 1009.36 1009.64 1009.70 1009.74 1009.49 1009.16 1008.79 1008.30 1007.97 1007.77 1007.74 1007.81 1008.01 1008.45 1008.60 1008.95 1009.29 1009.04 1009.43 1009.80
1012.71 1013.11 1012.90 1013.34 1014.28 1014.36 1014.44 1015.62 1016.87 1017.79 1017.78 1017.21 1014.71 1012.78 1010.38 1008.97 1008.29 1008.21 1008.05 1008.16 1008.60 1009.11 1009.26 1009.47 1009.57 1009.55 1009.54 1009.38 1009.07 1008.93 1008.74 1008.44 1007.94 1007.60 1007.31 1006.80 1006.74 1007.25 1007.62 1008.10 1008.47 1008.45 1008.37 1008.90
1013.00 1013.37 1012.90 1013.46 1013.29 1013.67 1014.48 1014.97 1015.85 1016.15 1016.74 1015.92 1014.62 1011.70 1009.14 1008.28 1008.38 1008.63 1008.32 1008.61 1008.87 1009.46 1009.55 1009.62 1009.70 1009.52 1009.53 1009.13 1008.90 1008.61 1008.46 1008.27 1007.91 1007.62 1007.22 1006.83 1006.10 1006.02 1006.53 1006.98 1007.41 1007.96 1008.09 1008.20
1012.78 1013.64 1014.12 1013.60 1013.51 1013.80 1014.07 1014.00 1015.09 1015.05 1015.66 1015.63 1014.68 1011.35 1008.78 1008.45 1008.74 1008.54 1008.66 1008.90 1009.32 1009.55 1009.53 1009.42 1009.37 1009.20 1009.26 1009.28 1009.04 1008.74 1008.25 1008.03 1007.88 1007.59 1007.34 1006.84 1006.20 1005.62 1005.62 1005.78 1006.16 1006.98 1007.43 1007.12
1012.23 1013.76 1014.74 1014.94 1014.79 1014.26 1013.88 1013.74 1014.31 1014.77 1014.96 1014.62 1014.40 1010.54 1008.86 1008.30 1008.19 1008.76 1009.17 1009.30 1009.51 1009.66 1009.76 1009.79 1009.66 1009.81 1009.73 1009.45 1009.08 1008.58 1008.18 1007.75 1007.28 1007.11 1006.83 1006.35 1006.02 1005.70 1005.14 1005.07 1005.39 1005.90 1006.52 1006.23
1012.33 1013.36 1013.60 1013.25 1013.12 1013.54 1014.06 1013.78 1014.02 1014.45 1014.69 1012.95 1013.43 1010.18 1009.18 1009.46 1009.29 1008.96 1009.32 1009.51 1009.72 1009.94 1010.30 1010.53 1010.65 1010.47 1010.21 1009.99 1009.39 1008.69 1008.08 1007.45 1007.07 1006.81 1006.48 1006.19 1005.86 1005.59 1005.04 1004.84 1004.93 1005.26 1005.76 1005.63
1012.21 1013.13 1013.91 1013.73 1013.60 1013.48 1013.49 1013.63 1013.77 1013.82 1013.00 1013.53 1011.05 1011.10 1007.46 1010.23 1009.80 1009.46 1009.41 1009.65 1009.93 1010.37 1010.87 1011.13 1011.20 1011.23 1010.90 1010.45 1009.73 1008.98 1008.28 1007.51 1007.12 1006.81 1006.50 1006.17 1005.80 1005.37 1005.09 1004.71 1004.66 1004.87 1005.43 1004.33
1012.10 1013.54 1014.17 1014.40 1014.17 1013.97 1014.02 1013.51 1012.97 1012.90 1012.60 1012.91 1011.51 1010.98 1007.15 1009.63 1009.87 1010.13 1010.22 1010.48 1010.88 1011.56 1012.04 1012.43 1012.38 1012.12 1011.72 1011.18 1010.46 1009.55 1008.82 1007.94 1007.30 1007.04 1006.69 1006.22 1006.05 1005.50 1005.41 1005.00 1004.61 1004.43 1004.35 1004.61
1012.02 1013.60 1014.75 1014.85 1014.42 1014.82 1014.60 1010.92 1011.82 1011.84 1011.54 1011.47 1011.49 1009.50 1009.90 1009.62 1010.29 1010.58 1010.87 1011.70 1012.06 1012.64 1013.13 1013.42 1013.35 1013.04 1012.56 1011.86 1011.13 1010.54 1009.72 1008.54 1007.72 1007.28 1006.88 1006.52 1006.14 1005.70 1005.58 1005.47 1004.88 1004.96 1004.51 1004.00
1011.72 1013.34 1014.77 1015.11 1015.02 1014.32 1010.75 1009.75 1009.76 1010.26 1010.18 1010.33 1009.93 1008.55 1008.95 1009.60 1010.20 1011.11 1011.89 1012.46 1012.96 1013.52 1013.93 1014.20 1014.19 1013.81 1013.26 1012.57 1012.11 1011.45 1010.49 1009.31 1008.41 1008.00 1007.62 1007.04 1006.57 1006.26 1005.63 1005.64 1005.72 1005.43 1005.38 1004.72
1011.52 1012.88 1014.53 1014.92 1014.73 1012.66 1010.36 1009.56 1009.62 1009.61 1009.01 1009.06 1008.84 1008.22 1009.21 1009.81 1010.62 1012.21 1012.83 1013.32 1013.86 1014.39 1014.70 1014.87 1014.86 1014.59 1014.07 1013.58 1013.30 1012.38 1011.07 1010.20 1009.48 1008.98 1008.58 1008.07 1007.33 1006.58 1006.16 1005.36 1005.86 1006.32 1005.78 1005.38
1012.15 1012.37 1013.64 1014.28 1014.18 1012.64 1010.02 1009.17 1008.68 1009.32 1009.26 1008.59 1008.75 1009.08 1009.70 1010.37 1011.75 1012.92 1013.60 1014.16 1014.50 1014.93 1015.28 1015.42 1015.43 1015.17 1014.82 1014.40 1013.99 1013.08 1011.92 1011.21 1010.47 1009.88 1009.37 1008.75 1008.13 1007.26 1006.75 1006.34 1006.07 1006.13 1006.40 1005.89
1012.31 1012.35 1012.50 1013.10 1013.13 1011.38 1009.84 1009.64 1009.63 1010.41 1009.94 1009.42 1009.82 1010.57 1011.12 1011.82 1012.91 1013.72 1014.14 1014.62 1015.03 1015.35 1015.65 1015.80 1015.85 1015.76 1015.38 1014.97 1014.46 1013.67 1012.88 1012.20 1011.60 1010.67 1009.80 1009.07 1008.50 1008.00 1007.44 1006.90 1006.49 1006.40 1006.04 1006.07
1010.93 1011.49 1011.66 1012.21 1012.27 1011.25 1009.64 1010.08 1010.31 1010.34 1010.53 1010.85 1011.30 1012.13 1012.76 1013.34 1013.78 1014.18 1014.78 1015.27 1015.69 1015.96 1016.07 1016.37 1016.36 1016.13 1015.76 1015.49 1015.06 1014.28 1013.60 1012.97 1012.16 1011.11 1010.21 1009.50 1008.66 1008.06 1007.41 1007.38 1007.13 1007.18 1006.85 1006.12
1010.53 1009.62 1010.03 1010.43 1009.74 1009.60 1009.82 1010.33 1010.73 1010.81 1011.39 1012.23 1012.80 1013.66 1014.09 1014.55 1014.99 1015.31 1015.71 1016.02 1016.26 1016.43 1016.62 1016.89 1017.03 1016.70 1016.20 1015.76 1015.32 1014.72 1014.09 1013.40 1012.51 1011.50 1010.51 1009.68 1009.04 1008.58 1007.89 1007.53 1007.43 1007.27 1007.20 1006.87
1009.90 1009.41 1009.72 1009.88 1009.66 1010.00 1010.55 1011.22 1011.78 1012.12 1012.68 1013.46 1014.11 1014.76 1015.27 1015.70 1016.05 1016.38 1016.51 1016.77 1016.97 1016.93 1016.97 1017.08 1017.07 1016.82 1016.42 1016.10 1015.75 1015.29 1014.50 1013.87 1013.06 1012.03 1010.98 1009.92 1009.18 1008.66 1008.21 1007.78 1007.46 1007.25 1007.16 1007.14
1009.44 1009.71 1010.00 1010.31 1010.64 1011.17 1011.47 1011.77 1012.78 1013.72 1014.16 1014.79 1015.55 1015.94 1016.37 1016.77 1017.00 1017.19 1017.31 1017.26 1017.23 1017.32 1017.38 1017.34 1017.31 1017.20 1016.95 1016.58 1016.13 1015.59 1014.90 1014.44 1013.55 1012.47 1011.20 1010.07 1009.42 1009.00 1008.46 1008.07 1007.64 1007.22 1006.94 1006.89
1009.38 1009.58 1010.43 1010.73 1010.79 1011.05 1012.18 1012.90 1013.59 1014.59 1015.43 1015.89 1016.44 1016.98 1017.24 1017.49 1017.89 1018.12 1018.11 1018.03 1017.98 1017.91 1017.85 1017.75 1017.80 1017.66 1017.31 1016.91 1016.41 1015.92 1015.38 1014.93 1014.00 1012.71 1011.44 1010.42 1009.64 1009.06 1008.72 1008.49 1008.24 1007.96 1007.50 1006.96
Wind_Speed
12 7 14 14 14 11 11 12 12 9 14 1 7 11 11 10 11 13 11 12 11 13 12 10 9 10 10 9 10 13 14 14 11 10 10 11 12 10 10 10 13 12 13 13
6 16 13 12 14 14 13 12 13 12 5 1 8 19 17 18 18 19 15 13 12 10 10 11 9 9 11 11 11 12 16 17 14 12 12 11 10 9 10 9 11 12 12 14
14 5 17 14 15 16 16 14 9 10 12 6 9 19 17 19 21 20 17 17 18 19 14 12 10 9 8 10 12 14 15 16 17 18 11 7 5 5 8 11 11 14 14 15
14 19 8 18 14 11 12 8 12 14 5 5 4 11 14 13 13 10 11 10 12 14 18 18 12 10 10 9 11 13 16 17 16 19 16 17 15 14 14 13 11 13 18 17
8 11 14 15 17 10 8 6 8 7 5 9 11 9 7 5 10 11 8 10 11 11 9 8 9 8 7 8 8 10 15 17 17 17 19 15 17 14 10 10 15 16 16 20
16 6 11 12 9 9 5 4 3 3 2 7 7 9 7 8 8 2 7 7 4 3 4 3 6 7 6 6 5 7 9 15 16 17 21 21 20 18 13 13 12 12 12 14
13 20 4 3 16 13 10 7 2 4 5 8 6 9 19 8 12 8 9 7 6 7 5 6 9 8 9 10 9 7 8 10 15 18 20 22 21 20 19 15 13 13 12 12
12 9 19 9 10 9 13 9 5 7 5 3 9 11 10 6 11 7 4 4 6 7 7 8 6 3 6 8 9 9 8 9 10 15 18 19 21 14 14 16 13 12 12 14
15 13 6 14 7 9 11 15 12 5 3 1 5 8 10 13 7 9 8 4 7 6 5 4 3 4 6 7 8 8 9 9 8 10 12 16 18 19 16 17 16 12 14 12
4 5 9 11 10 13 8 6 5 4 5 5 7 7 12 5 11 11 8 8 8 6 6 6 5 5 6 7 6 7 8 9 9 9 9 10 14 17 16 15 16 15 13 14
4 4 7 13 14 13 12 7 6 7 5 5 3 7 7 13 2 5 8 8 7 1 5 5 4 5 7 8 7 8 7 8 8 8 8 8 10 13 14 14 15 14 14 14
16 1 3 13 3 9 16 19 12 5 5 4 2 11 6 6 8 8 7 5 2 3 6 7 8 8 7 7 7 8 7 7 7 8 8 9 8 7 11 14 16 14 14 12
14 5 4 1 3 2 10 18 19 16 6 8 6 12 5 5 5 8 6 3 4 5 7 7 7 7 8 8 8 8 8 8 8 7 8 8 8 8 11 13 13 13 14 14
15 5 8 12 2 8 7 9 15 14 12 21 15 27 19 11 11 13 8 6 4 3 6 6 7 8 9 10 9 8 8 7 7 7 7 7 8 9 10 11 12 11 11 9
10 9 14 14 9 3 4 4 8 14 22 13 24 22 35 6 9 7 11 4 4 7 9 10 11 11 12 13 14 13 12 7 6 7 7 8 7 7 7 7 7 6 8 8
8 3 2 6 10 10 2 8 15 18 18 17 23 22 28 7 9 14 6 8 9 8 9 10 12 13 14 15 16 15 15 11 5 6 7 6 7 7 7 7 7 8 9 6
16 7 5 7 7 3 7 28 18 19 15 15 13 25 19 19 10 4 5 5 6 7 8 11 12 13 14 16 15 16 16 15 9 7 6 6 6 6 6 7 5 6 6 7
15 8 3 2 4 10 12 5 17 22 20 18 19 24 11 6 2 10 8 6 7 7 8 9 10 13 14 14 14 16 15 12 10 9 9 8 7 7 4 4 7 6 4 4
10 8 4 5 5 8 13 6 6 8 14 19 22 24 9 5 7 6 7 7 6 6 6 7 9 12 12 13 15 15 13 11 10 11 12 11 9 7 7 4 3 6 3 2
2 13 8 5 6 10 3 4 8 7 10 5 4 2 7 5 4 4 5 5 6 6 5 7 10 10 11 11 13 13 12 12 13 13 13 12 12 8 8 6 4 3 2 3
7 8 16 10 5 9 5 5 1 7 6 4 7 6 4 4 3 2 4 5 5 6 8 8 8 9 10 9 12 13 12 15 16 15 14 12 11 10 9 8 2 3 1 3
12 10 7 6 7 15 8 3 11 5 3 5 5 4 5 5 5 5 6 6 6 6 7 6 8 9 8 7 11 13 14 13 14 15 14 13 12 8 6 5 4 3 4 3
8 9 8 11 9 2 3 3 2 2 6 3 5 5 5 3 3 5 5 6 6 6 4 3 5 9 7 7 9 11 12 13 14 13 15 13 12 8 5 4 5 1 3 3
4 2 5 5 5 5 6 5 4 4 7 7 6 6 3 1 4 5 6 5 5 4 5 4 6 8 10 9 9 9 11 11 12 12 12 11 11 9 6 3 1 1 2 2
5 8 6 1 2 2 2 5 8 7 7 8 5 3 3 2 3 4 5 6 7 7 7 7 6 7 9 9 9 10 10 11 11 10 10 9 7 6 5 4 5 3 2 1
5 6 6 5 3 4 1 7 9 8 6 6 5 3 3 3 3 4 5 5 6 8 8 8 7 9 9 9 9 10 8 11 11 11 8 7 7 5 3 2 2 12 12 10
Wind_Direction
197 199 205 203 223 238 256 231 240 240 235 294 265 267 272 277 271 272 264 262 246 252 259 256 237 203 202 201 185 187 192 197 191 204 208 204 202 189 195 194 205 202 193 194
175 227 208 216 217 227 249 261 272 271 287 146 282 276 270 260 258 258 262 268 267 260 254 259 252 218 196 196 194 197 195 194 195 201 207 212 210 207 201 199 204 213 201 196
217 243 212 227 221 224 226 229 261 296 304 323 317 289 254 249 249 248 253 253 256 255 258 262 258 256 231 201 200 200 206 204 193 201 203 205 205 205 208 210 208 206 212 202
233 232 232 222 233 221 237 214 244 258 296 275 315 287 289 297 281 254 244 242 240 240 240 242 245 242 231 226 207 200 205 205 206 199 199 202 204 204 213 211 210 206 208 210
210 201 199 206 218 230 243 226 258 248 273 283 251 271 277 263 298 277 252 225 232 239 232 232 236 239 236 225 210 200 204 206 208 202 205 207 214 218 215 207 205 205 206 209
235 200 207 218 191 212 190 230 191 286 39 251 209 227 247 227 247 87 13 327 302 343 244 48 4 3 341 319 258 226 210 212 203 202 209 212 212 220 216 207 207 204 204 206
205 228 266 213 205 193 195 144 152 213 209 236 199 192 245 302 297 277 300 298 23 18 17 35 39 13 345 324 310 269 229 225 212 207 209 215 220 217 224 219 208 203 205 206
201 206 198 182 207 180 189 179 180 203 190 267 199 226 247 212 250 250 252 289 22 52 64 63 43 348 304 304 306 296 277 243 223 216 216 218 222 225 221 223 214 218 212 211
194 229 169 177 162 196 187 211 220 334 112 173 232 285 299 281 233 248 264 259 112 90 75 77 309 255 269 290 293 296 292 274 249 234 227 218 219 223 228 227 229 218 214 214
172 218 224 173 155 230 217 136 164 201 202 230 257 268 246 305 232 222 252 166 92 40 26 336 311 314 296 273 269 285 278 276 272 253 241 230 215 220 225 232 233 231 223 217
220 304 173 148 200 187 205 177 241 165 203 193 272 250 213 225 324 131 82 76 81 9 283 283 308 287 301 302 278 274 268 267 271 273 261 251 228 212 218 228 234 235 234 228
213 262 164 202 177 211 218 221 202 190 178 234 7 261 294 348 68 93 90 122 175 297 320 343 329 329 317 306 310 296 286 269 264 256 259 259 244 211 211 219 226 233 233 223
181 190 142 317 265 271 228 222 225 240 280 209 160 255 200 6 189 154 152 86 39 354 329 321 330 337 330 317 307 302 292 265 262 270 260 260 258 244 229 229 226 222 227 224
168 148 208 211 134 140 203 208 225 231 229 241 242 265 254 295 304 320 342 27 3 345 344 342 356 342 333 328 310 304 303 293 284 270 270 262 259 257 249 243 232 224 221 218
164 226 217 241 253 112 164 185 226 235 237 227 243 246 265 226 251 290 334 330 17 29 25 1 349 340 334 330 327 329 322 302 290 276 269 268 271 264 260 233 226 214 232 193
162 207 148 247 242 259 212 219 228 235 250 256 266 268 257 313 332 299 318 21 35 19 9 348 340 338 335 334 328 324 332 320 317 286 278 278 289 282 279 263 234 213 195 206
188 147 136 247 189 90 294 239 229 231 221 199 225 245 267 260 258 270 64 54 44 22 357 346 339 335 333 330 339 332 323 320 324 318 310 308 297 290 286 289 270 261 237 170
191 148 114 207 86 204 241 179 220 225 234 231 240 251 246 233 115 100 69 57 39 8 354 348 340 334 331 334 337 325 320 323 336 355 346 345 336 308 286 299 295 275 276 245
192 155 175 202 198 287 291 188 157 178 246 226 233 248 237 119 98 75 55 45 38 16 358 349 343 331 329 341 333 325 326 344 1 360 346 340 338 332 322 329 326 300 269 220
314 190 192 171 195 215 267 314 167 113 267 174 211 207 139 120 157 151 25 35 29 20 11 352 340 330 334 340 335 331 341 350 354 346 338 334 333 335 329 319 295 186 313 309
186 187 201 205 227 275 188 166 59 148 225 86 94 80 83 104 102 80 23 21 18 16 1 353 346 332 329 340 342 344 345 352 340 335 332 334 337 335 329 320 341 302 222 174
181 187 198 195 212 252 155 107 165 179 56 110 98 82 93 66 360 3 17 0 356 354 353 354 336 328 325 346 346 344 345 336 335 333 334 335 338 331 336 329 321 308 268 229
199 195 182 180 212 129 46 87 67 118 135 123 107 97 87 76 354 342 337 344 341 332 340 341 320 315 323 342 344 334 333 335 333 330 337 337 338 331 330 331 315 310 308 313
253 192 174 98 213 180 146 100 93 65 106 102 87 98 83 53 2 315 323 320 317 338 337 337 325 331 327 336 334 326 327 335 328 327 323 333 340 333 331 328 301 300 309 320
194 139 157 270 138 83 179 152 141 107 99 104 99 101 93 39 317 322 315 320 331 332 341 335 332 327 319 326 326 328 329 333 325 317 319 323 330 329 332 345 8 329 254 214
195 167 162 212 176 156 87 119 119 123 129 107 108 118 69 37 337 336 311 322 323 334 329 334 334 326 321 320 319 324 333 333 322 318 318 319 319 321 315 321 336 36 37 26